User: anonymous   Login
Location: Peebles
(55.6412°N, 3.1714°W)
Time: 06:29:29
(UTC+00:00)
Language:

Cosmos 1782 Rocket - Orbit

View from above orbital plane
View from above orbital plane
View from above satellite
View from above satellite

Ground track
Ground track

The orbit data is extracted from the following two-line orbital elements,

1 16987U 86074B   21336.42658118  .00000139  00000-0  14196-4 0  9994
2 16987  82.5179 224.4395 0016807 295.1350 238.9718 14.83143593878834
Epoch (UTC): 02 December 2021 10:14:16
Eccentricity: 0.0016807
inclination: 82.5179°
perigee height: 607 km
apogee height: 631 km
right ascension of ascending node: 224.4395°
argument of perigee: 295.1350°
revolutions per day: 14.83143593
mean anomaly at epoch: 238.9718°
orbit number at epoch: 87883

The dashed part of the orbit path shows where the satellite is in the earth's shadow,  

DLR